Humidity-temperature Sensor

Selected Measurement Type: Relative Humidity

 
Relative Humidity [%]     6 entries per hour
Showing data from 5/30/2018 (00:00:00 Z) to 5/29/2018 (00:01:00 Z)
Previous Next [ Day | 3-Days | 7-Days ]
First Last
Prev [ Day | 3-Days | 7-Days ] Next
First Last

Start Time:     :
End Time:     :     
Time (in GMT) :00 :50 :40 :30 :20 :10
Previous Next [ Day | 3-Days | 7-Days ]
First Last
Prev [ Day | 3-Days | 7-Days ] Next
First Last


123 => good data
MM => data is determined as missing
-- => data not received/configured
Back to Top Back to Top
5/30/2018 00:00 to 23:10 78.61 78.22 78.84 78.45 77.99 79.67
5/29/2018 23:00 to 22:10 80.04 80.64 80.68 79.96 80.10 79.52
5/29/2018 22:00 to 21:10 79.79 79.79 79.05 79.48 77.78 78.55
5/29/2018 21:00 to 20:10 78.41 78.32 78.32 77.83 76.75 75.42
5/29/2018 20:00 to 19:10 76.09 75.92 76.00 76.09 75.09 75.07
5/29/2018 19:00 to 18:10 74.30 75.48 74.41 74.66 75.24 74.24
5/29/2018 18:00 to 17:10 75.57 81.24 84.27 85.16 86.38 86.67
5/29/2018 17:00 to 16:10 86.03 84.91 87.50 88.08 87.19 87.91
5/29/2018 16:00 to 15:10 89.20 90.17 89.78 89.59 90.36 91.12
5/29/2018 15:00 to 14:10 89.70 88.02 89.14 90.30 91.70 92.26
5/29/2018 14:00 to 13:10 91.46 90.13 90.09 89.03 86.28 85.95
5/29/2018 13:00 to 12:10 85.34 86.17 87.83 88.12 88.00 87.96
5/29/2018 12:00 to 11:10 88.56 89.45 88.58 89.07 88.08 86.53
5/29/2018 11:00 to 10:10 88.39 87.96 87.64 86.73 86.88 86.88
5/29/2018 10:00 to 9:10 86.92 84.58 86.36 86.75 87.17 86.96
5/29/2018 09:00 to 8:10 87.13 87.54 86.92 86.53 86.69 87.13
5/29/2018 08:00 to 7:10 85.74 85.82 85.22 85.53 86.11 86.69
5/29/2018 07:00 to 6:10 87.89 88.70 88.78 88.89 88.31 88.47
5/29/2018 06:00 to 5:10 89.03 88.68 86.82 86.75 88.41 87.58
5/29/2018 05:00 to 4:10 84.64 85.32 84.39 83.42 82.24 81.18
5/29/2018 04:00 to 3:10 80.87 80.89 82.28 83.65 83.54 82.61
5/29/2018 03:00 to 2:10 83.42 83.29 82.98 82.76 82.01 83.79
5/29/2018 02:00 to 1:10 83.02 83.71 83.96 84.00 83.46 83.42
5/29/2018 01:00 to 0:10 82.82 83.42 82.22 81.70 81.99 82.40